This is the latest recevied weather packets stored in our database for station/object EA4GEL-16. If no packets are shown the sender has not sent any weather packets the latest 10 day(s).
| Time | Temp. | Humidity | Pressure | Rain* | Wind** | Luminosity | Snow |
|---|---|---|---|---|---|---|---|
| 1787410884 | 29.44° C | 28% | 941.6 hPa | - | - | - | - |
| 1787409984 | 28.89° C | 30% | 941.6 hPa | - | - | - | - |
| 1787409084 | 28.89° C | 29% | 941.8 hPa | - | - | - | - |
| 1787408184 | 28.89° C | 30% | 941.9 hPa | - | - | - | - |
| 1787407284 | 28.89° C | 31% | 942 hPa | - | - | - | - |
| 1787406384 | 28.33° C | 33% | 942.2 hPa | - | - | - | - |
| 1787405484 | 28.89° C | 31% | 942.2 hPa | - | - | - | - |
| 1787403682 | 28.33° C | 30% | 942.5 hPa | - | - | - | - |
| 1787402782 | 28.33° C | 32% | 942.6 hPa | - | - | - | - |
| 1787401882 | 28.33° C | 31% | 942.6 hPa | - | - | - | - |
| 1787400982 | 27.78° C | 32% | 942.7 hPa | - | - | - | - |
| 1787400082 | 27.22° C | 35% | 942.7 hPa | - | - | - | - |
| 1787399434 | 27.22° C | 33% | 942.7 hPa | - | - | - | - |
| 1787398534 | 27.22° C | 32% | 942.9 hPa | - | - | - | - |
| 1787397633 | 27.22° C | 33% | 943 hPa | - | - | - | - |
| 1787396733 | 27.22° C | 33% | 943.2 hPa | - | - | - | - |
| 1787395833 | 27.22° C | 33% | 943.3 hPa | - | - | - | - |
| 1787394933 | 27.22° C | 33% | 943.4 hPa | - | - | - | - |
| 1787394033 | 26.67° C | 34% | 943.4 hPa | - | - | - | - |
| 1787393133 | 26.67° C | 34% | 943.5 hPa | - | - | - | - |
| 1787392233 | 26.67° C | 35% | 943.6 hPa | - | - | - | - |
| 1787391333 | 26.67° C | 36% | 943.6 hPa | - | - | - | - |
| 1787390432 | 26.11° C | 35% | 943.7 hPa | - | - | - | - |
| 1787389532 | 26.11° C | 36% | 943.6 hPa | - | - | - | - |
| 1787388632 | 26.11° C | 36% | 943.5 hPa | - | - | - | - |
* Rain since midnight (hover to see other rain measurements)
** Current wind speed in m/s (hover to see current wind gust speed)